Weather History for Munising, MI

Change the Weather History Date:

Sunday, March 3, 2013

  Actual Average (KISQ) Record (KISQ)
Temperature  
Mean Temperature 16 °F -  
Max Temperature 24 °F 31 °F 49 °F (1993)
Min Temperature 8 °F 12 °F -31 °F (1972)
Degree Days  
Heating Degree Days 49    
Moisture  
Dew Point 11 °F    
Average Humidity 71    
Maximum Humidity 80    
Minimum Humidity 59    
Precipitation  
Precipitation 0.02 in - - ()
Sea Level Pressure  
Sea Level Pressure 30.14 in    
Wind  
Wind Speed 6 mph (North)    
Max Wind Speed 14 mph    
Max Gust Speed -    
Averages and records for this station are not official NWS values.
T = Trace of Precipitation, MM = Missing Value Source: NWS Daily Summary

Daily Weather History Graph

Daily Weather History Graph

Search for Another Location

Airport:

Trip Planner

Search our weather history database for the weather conditions in past years. The results will help you decide how hot, cold, wet, or windy it might be!

Date:

Astronomy

Mar. 03, 2013 Rise Set
Actual Time 7:21 AM EST 6:35 PM EST
Civil Twilight 6:51 AM EST 7:06 PM EST
Nautical Twilight 6:16 AM EST 7:40 PM EST
Astronomical Twilight 5:41 AM EST 8:16 PM EST
Moon 12:36 AM EST (3/3) 10:13 AM EST (3/3)
Length of Visible Light 12h 14m
Length of Day
11h 14m
Waning Gibbous, 64% of the Moon is Illuminated
Mar 3
Waning Gibbous
Mar 4
Last Quarter
Mar 11
New
Mar 19
First Quarter
Mar 27
Full

Hourly Weather History & Observations

Time (EST) Temp. Windchill Dew Point Humidity Pressure Visibility Wind Dir Wind Speed Gust Speed Precip Events Conditions
12:56 AM 16.0 °F - 3.9 °F 59% 30.15 in - Calm Calm - N/A   Unknown
1:56 AM 10.9 °F - 5.0 °F 77% 30.15 in - Calm Calm - N/A   Unknown
2:56 AM 9.0 °F 2.4 °F 3.9 °F 80% 30.14 in - South 3.5 mph - N/A   Unknown
3:56 AM 8.1 °F - 3.0 °F 80% 30.14 in - Calm Calm - N/A   Unknown
4:56 AM 8.1 °F - 3.0 °F 80% 30.13 in - Calm Calm - N/A   Unknown
5:56 AM 18.0 °F 6.1 °F 10.0 °F 71% 30.13 in - North 10.4 mph - N/A   Unknown
6:56 AM 19.0 °F 6.8 °F 10.0 °F 68% 30.14 in - North 11.5 mph - N/A   Unknown
7:56 AM 19.9 °F 7.9 °F 10.9 °F 68% 30.15 in - NNE 11.5 mph - N/A   Unknown
8:56 AM 19.9 °F 6.7 °F 12.0 °F 71% 30.15 in - NE 13.8 mph - N/A   Unknown
9:56 AM 21.9 °F 10.4 °F 14.0 °F 72% 30.15 in - NNE 11.5 mph - N/A   Unknown
10:56 AM 21.9 °F 10.4 °F 16.0 °F 78% 30.15 in - North 11.5 mph - 0.01 in   Unknown
11:56 AM 21.9 °F 9.2 °F 15.1 °F 75% 30.14 in - NNE 13.8 mph - N/A   Unknown
12:56 PM 21.9 °F 11.7 °F 16.0 °F 78% 30.14 in - NNE 9.2 mph - 0.01 in   Unknown
1:56 PM 24.1 °F 13.1 °F 12.9 °F 62% 30.12 in - NNW 11.5 mph - N/A   Unknown
2:56 PM 23.0 °F 12.4 °F 12.9 °F 65% 30.12 in - North 10.4 mph - N/A   Unknown
3:56 PM 21.9 °F 11.0 °F 14.0 °F 72% 30.13 in - North 10.4 mph - N/A   Unknown
4:56 PM 23.0 °F 11.7 °F 12.0 °F 63% 30.13 in - North 11.5 mph - N/A   Unknown
5:56 PM 23.0 °F 12.4 °F 14.0 °F 68% 30.13 in - North 10.4 mph - N/A   Unknown
6:56 PM 21.9 °F 10.4 °F 12.0 °F 66% 30.13 in - NNW 11.5 mph - N/A   Unknown
7:56 PM 21.9 °F 11.7 °F 12.9 °F 68% 30.14 in - North 9.2 mph - N/A   Unknown
8:56 PM 21.9 °F 12.5 °F 12.9 °F 68% 30.14 in - NNW 8.1 mph - N/A   Unknown
9:56 PM 21.0 °F 12.4 °F 12.9 °F 71% 30.14 in - NNW 6.9 mph - N/A   Unknown
10:56 PM 21.0 °F 13.4 °F 12.9 °F 71% 30.13 in - NW 5.8 mph - N/A   Unknown
11:56 PM 21.9 °F 17.2 °F 12.9 °F 68% 30.13 in - NNW 3.5 mph - N/A   Unknown